Tracking 19562 objects as of 21-Mar-2019
HD Live streaming from Space Station
objects crossing your sky now

EKRAN 9

Track EKRAN 9 now!
EKRAN 9 is classified as:


NORAD ID: 13554
Int'l Code: 1982-093A
Perigee: 35,665.7 km
Apogee: 35,901.2 km
Inclination: 12.6 °
Period: 1,435.6 minutes
Semi major axis: 42154 km
RCS: 0.5011 m2 (medium)
Launch date: September 16, 1982
Source: Commonwealth of Independent States (former USSR) (CIS)
Launch site: TYURATAM MISSILE AND SPACE COMPLEX (TTMTR)
aabbcc
Your satellite tracking list
Your tracking list is empty




NASA's NSSDC Master Catalog

Two Line Element Set (TLE):
1 13554U 82093A   19079.66891390 -.00000335 +00000-0 +00000-0 0  9990
2 13554 012.5658 325.0702 0027923 308.3207 245.1337 01.00308531093471
Source of the keplerian elements: AFSPC